Middlesboro, KY

4:50 PM EDT on March 27, 2017 (GMT -0400)
Middlesboro

Weather History for K1A6 - February, 2012

Change the Weather History Date:

Thursday, February 16, 2012

  Actual Average (KLOZ) Record (KLOZ)
Temperature  
Mean Temperature 56 °F -  
Max Temperature 64 °F 49 °F 69 °F (2006)
Min Temperature 48 °F 28 °F 0 °F (1958)
Degree Days  
Heating Degree Days 9    
Growing Degree Days 6 (Base 50)    
Moisture  
Dew Point 49 °F    
Average Humidity 81    
Maximum Humidity 100    
Minimum Humidity 54    
Precipitation  
Precipitation 0.06 in - - ()
Sea Level Pressure  
Sea Level Pressure 30.07 in    
Wind  
Wind Speed 5 mph (WNW)    
Max Wind Speed 16 mph    
Max Gust Speed 26 mph    
Visibility 8 miles    
Events Rain    
Averages and records for this station are not official NWS values.
T = Trace of Precipitation, MM = Missing Value Source: NWS Daily Summary

Daily Weather History Graph

Daily Weather History Graph

Search for Another Location

Airport or City:

Trip Planner

Search our weather history database for the weather conditions in past years. The results will help you decide how hot, cold, wet, or windy it might be!

Date:

Astronomy

Feb. 16, 2012 Rise Set
Actual Time 6:22 AM CST 5:16 PM CST
Civil Twilight 5:56 AM CST 5:42 PM CST
Nautical Twilight 5:25 AM CST 6:12 PM CST
Astronomical Twilight 4:55 AM CST 6:42 PM CST
Moon 2:11 AM CST (2/16) 12:12 PM CST (2/16)
Length of Visible Light 11h 46m
Length of Day
10h 53m
Waning Crescent, 28% of the Moon is Illuminated
Feb 16
Waning Crescent
Feb 21
New
Feb 29
First Quarter
Mar 8
Full
Mar 14
Last Quarter

Hourly Weather History & Observations

Time (CST) Temp. Dew Point Humidity Pressure Visibility Wind Dir Wind Speed Gust Speed Precip Events Conditions
12:35 AM 51.8 °F 46.4 °F 82% 30.12 in 10.0 mi SSW 9.2 mph - 0.01 in Rain Light Rain
12:55 AM 53.6 °F 46.4 °F 77% 30.11 in 10.0 mi SSW 10.4 mph 26.5 mph N/A Rain Light Rain
1:15 AM 51.8 °F 46.4 °F 82% 30.10 in 7.0 mi Calm Calm - 0.01 in Rain Rain
1:35 AM 51.8 °F 46.4 °F 82% 30.11 in 7.0 mi Calm Calm - 0.02 in Rain Rain
2:15 AM 48.2 °F 32.0 °F 54% 30.10 in 7.0 mi NE 5.8 mph - 0.02 in Rain Rain
2:35 AM 48.2 °F 48.2 °F 100% 30.08 in 7.0 mi East 5.8 mph - 0.02 in Rain Light Rain
2:55 AM - - N/A% 30.09 in 5.0 mi Calm Calm - N/A Rain Rain
3:15 AM 48.2 °F 32.0 °F 54% 30.07 in 3.0 mi North 3.5 mph - 0.02 in Rain Rain
3:35 AM 48.2 °F 46.4 °F 93% 30.07 in 5.0 mi Calm Calm - 0.02 in Rain Light Rain
3:55 AM 48.2 °F 46.4 °F 93% 30.07 in 4.0 mi Calm Calm - N/A   Overcast
4:15 AM 48.2 °F 46.4 °F 93% 30.06 in 7.0 mi Calm Calm - N/A   Overcast
4:35 AM - - N/A% 30.05 in 5.0 mi Calm Calm - N/A Rain Light Rain
4:55 AM 48.2 °F 46.4 °F 93% 30.04 in 4.0 mi Calm Calm - N/A   Overcast
5:15 AM - - N/A% 30.04 in 10.0 mi Calm Calm - N/A   Overcast
5:35 AM 51.8 °F 48.2 °F 88% 30.04 in 10.0 mi South 8.1 mph - N/A   Overcast
5:55 AM 51.8 °F 48.2 °F 88% 30.04 in 10.0 mi South 3.5 mph - N/A   Overcast
6:15 AM 51.8 °F 48.2 °F 88% 30.04 in 10.0 mi South 5.8 mph - N/A   Overcast
6:35 AM 53.6 °F 48.2 °F 82% 30.04 in 10.0 mi SSW 10.4 mph 16.1 mph N/A   Overcast
6:55 AM 53.6 °F 50.0 °F 88% 30.04 in 7.0 mi SSW 5.8 mph 17.3 mph N/A Rain Light Rain
7:15 AM 53.6 °F 50.0 °F 88% 30.04 in 10.0 mi SW 5.8 mph - N/A Rain Light Rain
7:35 AM 53.6 °F 51.8 °F 94% 30.05 in 10.0 mi SW 3.5 mph - N/A   Drizzle
7:55 AM 53.6 °F 53.6 °F 100% 30.05 in 3.0 mi SW 5.8 mph - N/A   Heavy Drizzle
8:15 AM 55.4 °F 53.6 °F 94% 30.05 in 5.0 mi SSW 4.6 mph 17.3 mph N/A   Drizzle
8:35 AM 55.4 °F 53.6 °F 94% 30.05 in 10.0 mi SW 6.9 mph 18.4 mph N/A Rain Light Rain
8:55 AM 55.4 °F 55.4 °F 100% 30.06 in 2.5 mi WSW 3.5 mph - N/A Rain Heavy Rain
9:15 AM 55.4 °F 55.4 °F 100% 30.06 in 3.0 mi Calm Calm - N/A   Drizzle
9:35 AM 55.4 °F 55.4 °F 100% 30.07 in 3.0 mi Calm Calm - N/A   Heavy Drizzle
9:55 AM 57.2 °F 55.4 °F 94% 30.07 in 4.0 mi Calm Calm - N/A   Drizzle
10:15 AM 57.2 °F 55.4 °F 94% 30.07 in 4.0 mi Calm Calm - N/A   Drizzle
10:35 AM 57.2 °F 55.4 °F 94% 30.07 in 10.0 mi West 9.2 mph - N/A   Light Drizzle
11:15 AM 57.2 °F 53.6 °F 88% 30.07 in 10.0 mi Calm Calm - N/A   Mostly Cloudy
11:35 AM 59.0 °F 53.6 °F 82% 30.06 in 10.0 mi WNW 5.8 mph - N/A Rain Light Rain
11:55 AM 60.8 °F 53.6 °F 77% 30.06 in 10.0 mi West 8.1 mph - N/A   Overcast
12:15 PM 62.6 °F 53.6 °F 72% 30.05 in 10.0 mi West 4.6 mph - N/A   Scattered Clouds
12:35 PM 60.8 °F 53.6 °F 77% 30.05 in 10.0 mi WNW 4.6 mph - N/A   Mostly Cloudy
12:55 PM 60.8 °F 51.8 °F 72% 30.05 in 10.0 mi West 4.6 mph - N/A   Mostly Cloudy
1:15 PM 64.4 °F 51.8 °F 64% 30.04 in 10.0 mi West 8.1 mph - N/A   Mostly Cloudy
1:35 PM 62.6 °F 48.2 °F 59% 30.05 in 10.0 mi West 5.8 mph - N/A   Mostly Cloudy
1:55 PM - - N/A% 30.04 in 10.0 mi NNW 5.8 mph - N/A   Mostly Cloudy
2:15 PM 62.6 °F 48.2 °F 59% 30.05 in 10.0 mi WNW 10.4 mph 19.6 mph N/A   Mostly Cloudy
2:35 PM 62.6 °F 48.2 °F 59% 30.05 in 10.0 mi WNW 8.1 mph - N/A   Mostly Cloudy
2:55 PM 60.8 °F 48.2 °F 63% 30.05 in 10.0 mi WNW 5.8 mph - N/A   Mostly Cloudy
3:15 PM 60.8 °F 50.0 °F 68% 30.07 in 10.0 mi NNW 16.1 mph 20.7 mph N/A   Overcast
3:35 PM 60.8 °F 50.0 °F 68% 30.07 in 10.0 mi NNW 8.1 mph - N/A   Mostly Cloudy
3:55 PM 57.2 °F 48.2 °F 72% 30.07 in 10.0 mi NW 8.1 mph - N/A   Mostly Cloudy
4:15 PM 57.2 °F 48.2 °F 72% 30.08 in 10.0 mi NW 6.9 mph - N/A   Mostly Cloudy
4:35 PM 57.2 °F 48.2 °F 72% 30.08 in 10.0 mi NW 5.8 mph - N/A   Overcast
4:55 PM 57.2 °F 48.2 °F 72% 30.09 in 10.0 mi NNW 3.5 mph - N/A   Overcast
5:15 PM 55.4 °F 48.2 °F 77% 30.09 in 10.0 mi WNW 6.9 mph - N/A   Overcast
5:35 PM 55.4 °F 48.2 °F 77% 30.10 in 10.0 mi NW 9.2 mph - N/A   Overcast
6:15 PM 53.6 °F 48.2 °F 82% 30.11 in 10.0 mi NW 3.5 mph - N/A   Overcast
6:35 PM 53.6 °F 48.2 °F 82% 30.12 in 10.0 mi Calm Calm - N/A   Overcast
6:55 PM 53.6 °F 48.2 °F 82% 30.12 in 10.0 mi NW 5.8 mph - N/A   Overcast
7:15 PM 53.6 °F 46.4 °F 77% 30.12 in 10.0 mi NW 6.9 mph - N/A   Overcast
7:35 PM 53.6 °F 46.4 °F 77% 30.13 in 10.0 mi NNW 5.8 mph - N/A   Overcast
7:55 PM 53.6 °F 46.4 °F 77% 30.14 in 10.0 mi NW 3.5 mph - N/A   Overcast
8:15 PM - - N/A% 30.14 in 10.0 mi NNW 5.8 mph - N/A   Overcast
8:35 PM 51.8 °F 46.4 °F 82% 30.15 in 10.0 mi NW 6.9 mph - N/A   Overcast
8:55 PM 51.8 °F 46.4 °F 82% 30.15 in 10.0 mi NW 5.8 mph - N/A Rain Light Rain
9:15 PM 51.8 °F 44.6 °F 76% 30.15 in 10.0 mi NW 6.9 mph - N/A   Overcast
9:35 PM 51.8 °F 44.6 °F 76% 30.16 in 10.0 mi NNW 3.5 mph - N/A   Overcast
9:55 PM 51.8 °F 44.6 °F 76% 30.15 in 10.0 mi Calm Calm - N/A   Overcast
10:15 PM 51.8 °F 44.6 °F 76% 30.15 in 10.0 mi Calm Calm - N/A   Overcast
10:35 PM 50.0 °F 44.6 °F 82% - 10.0 mi Calm Calm - N/A   Overcast
10:55 PM 50.0 °F 44.6 °F 82% 30.15 in 10.0 mi Calm Calm - N/A   Overcast
11:15 PM 50.0 °F 46.4 °F 87% 30.15 in 10.0 mi Calm Calm - N/A   Overcast
11:35 PM 48.2 °F 44.6 °F 87% 30.15 in 10.0 mi Calm Calm - N/A   Overcast
11:55 PM 50.0 °F 44.6 °F 82% 30.16 in 10.0 mi Calm Calm - N/A   Overcast